988  
ASCA44 KEWX 011220  
RWRMX  
 
LATIN AMERICA AND CARIBBEAN REGIONAL WEATHER ROUNDUP  
NATIONAL WEATHER SERVICE AUSTIN/SAN ANTONIO TX  
600 AM CST FRI MAR 01 2024  
 
NOTE: "FAIR" INDICATED FEW OR NO CLOUDS BELOW 12,000 FEET WITH NO  
SIGNIFICANT WEATHER AND/OR S TO VISIBILITY
.  
 
BAJA CALIFORNIA  
 
CITY SKY/WX TMP DP RH WIND PRES REMARKS
 
S.J. DEL CABO N/A N/A N/A N/A MISG N/A  
TIJUANA CLOUDY 55 50 82 NW5 30.17F  
 
NORTHWESTERN MEXICO  
 
CITY SKY/WX TMP DP RH WIND PRES REMARKS
 
HERMOSILLO CLEAR 54 45 71 CALM 30.04  
 
NORTHEASTERN MEXICO  
 
CITY SKY/WX TMP DP RH WIND PRES REMARKS
 
CHIHUAHUA CLEAR 41 37 87 S9 30.18 WCI 35  
MONCLOVA N/A N/A N/A N/A MISG N/A  
MONTERREY CLEAR 46 41 81 CALM 30.09R  
REYNOSA CLOUDY 52 41 66 N5 30.10  
CD. VICTORIA CLOUDY 55 50 82 NW3 30.08  
 
WESTERN MEXICO  
 
CITY SKY/WX TMP DP RH WIND PRES REMARKS
 
AGUASCALIENTES CLEAR 50 16 25 S6 30.26 WCI 48  
COLIMA N/A N/A N/A N/A MISG N/A  
DEL BAJIO PTCLDY 54 19 26 NE5 30.21R  
GUADALAJARA CLEAR 48 39 71 CALM 30.22  
MAZATLAN PTCLDY 55 54 94 CALM 29.99S  
P. VALLARTA PTCLDY 64 64 100 CALM 29.99  
URUAPAN N/A N/A N/A N/A MISG N/A  
ZACATECAS CLEAR 48 27 43 MISG 30.26S  
 
CENTRAL MEXICO  
 
CITY SKY/WX TMP DP RH WIND PRES REMARKS
 
CUERNAVACA N/A N/A N/A N/A MISG N/A  
MEXICO CITY MOCLDY 55 34 44 E5 30.32S  
MORELIA PTCLDY 48 41 76 CALM 30.27  
POZA RICA N/A N/A N/A N/A MISG N/A  
QUERETARO PTCLDY 55 36 47 NW5 30.31S  
S. LUIS POTOSI PTCLDY 45 43 93 CALM 30.22R FOG  
TAMPICO CLOUDY 66 64 94 MISG 30.03R  
TOLUCA PTCLDY 43 34 70 CALM 30.41S  
 
SOUTHERN MEXICO  
 
CITY SKY/WX TMP DP RH WIND PRES REMARKS
 
ACAPULCO PTCLDY 72 66 83 N2 29.91S  
B. DE HUATULCO PTCLDY 75 64 69 W5 29.97  
OAXACA CLEAR 55 46 71 N5 30.28R  
P. ESCONDIDO N/A N/A N/A N/A MISG N/A  
VERACRUZ CLOUDY 72 72 100 CALM 30.00  
 
YUCATAN PENINSULA  
 
CITY SKY/WX TMP DP RH WIND PRES REMARKS
 
CAMPECHE CLEAR 72 70 94 SE9 30.01R  
CANCUN PTCLDY 75 70 83 E5 30.06S  
CHETUMAL PTCLDY 77 72 83 SE6 30.04  
CD. DEL CARMEN CLEAR 75 70 83 SE17 29.99  
COZUMEL PTCLDY 72 70 94 SE5 30.05  
MERIDA CLEAR 68 66 94 SE8 30.04S  
MINATITLAN MOCLDY 70 68 94 CALM 29.97  
TAPACHULA CLEAR 72 68 88 CALM 29.94  
 
CENTRAL AMERICA  
 
CITY SKY/WX TMP DP RH WIND PRES REMARKS
 
BELIZE CITY PTCLDY 77 73 88 SE3 30.03R  
MANAGUA MOSUNNY 77 70 78 E7 29.94S  
 
CARIBBEAN  
 
CITY SKY/WX TMP DP RH WIND PRES REMARKS
 
ARUBA MOSUNNY 81 72 74 E18 30.00R  
CURACAO MOSUNNY 81 72 74 E15 30.00R  
KINGSTON PTCLDY 79 72 78 N3 30.06R  
NASSAU MOCLDY 72 66 83 E13 30.21S  
SAN JUAN MOSUNNY 79 70 73 E16 30.12R  
SANTO DOMINGO MOSUNNY 70 66 88 NE7 30.12R  
ST. CROIX MOSUNNY 79 72 78 NE12 30.10R  
ST. KITTS MOSUNNY 79 70 73 NE12 30.06S  
ST. MAARTEN MOSUNNY 79 73 83 E6 30.12R  
ST. THOMAS MOSUNNY 77 72 83 NE18G26 30.10R  
 

 
 
 
 
CLICK HERE TO GO TO PREVIOUS BULLETINS.

The Nexlab HPC Page Main Text Page